| time (UTC) | temp F | wind direction | speed knots | gust knots | rain 1hr in | rain 24hr in | rain mn in | humidity % | barometer mb |
| 20260905102555 | 73 | 131 | 0.0 | 0.0 | 0.00 | 0.00 | 0.00 | 94 | 1012.5 |
| 20260905102054 | 73 | 131 | 0.0 | 0.0 | 0.00 | 0.00 | 0.00 | 94 | 1012.4 |
| 20260905101554 | 73 | 131 | 0.0 | 0.0 | 0.00 | 0.00 | 0.00 | 94 | 1012.4 |
| 20260905101053 | 73 | 131 | 0.0 | 0.0 | 0.00 | 0.00 | 0.00 | 94 | 1012.4 |
| 20260905100553 | 73 | 131 | 0.0 | 0.0 | 0.00 | 0.00 | 0.00 | 93 | 1012.5 |
| 20260905100100 | 73 | 131 | 0.0 | 0.0 | 0.00 | 0.00 | 0.00 | 93 | 1012.4 |
| 20260905095552 | 73 | 131 | 0.0 | 0.0 | 0.00 | 0.00 | 0.00 | 93 | 1012.4 |
| 20260905095052 | 73 | 131 | 0.0 | 0.0 | 0.00 | 0.00 | 0.00 | 93 | 1012.4 |
| 20260905094552 | 73 | 131 | 0.0 | 0.0 | 0.00 | 0.00 | 0.00 | 93 | 1012.4 |
| 20260905094051 | 73 | 131 | 0.0 | 0.0 | 0.00 | 0.00 | 0.00 | 93 | 1012.4 |
| 20260905093552 | 74 | 131 | 0.0 | 0.0 | 0.00 | 0.00 | 0.00 | 93 | 1012.4 |
| 20260905093052 | 74 | 131 | 0.0 | 0.0 | 0.00 | 0.00 | 0.00 | 93 | 1012.3 |
| 20260905092552 | 74 | 131 | 0.0 | 0.0 | 0.00 | 0.00 | 0.00 | 93 | 1012.4 |
| 20260905092052 | 74 | 131 | 0.0 | 0.0 | 0.00 | 0.00 | 0.00 | 93 | 1012.4 |
| 20260905091555 | 74 | 131 | 0.0 | 0.0 | 0.00 | 0.00 | 0.00 | 92 | 1012.4 |
| 20260905091051 | 74 | 131 | 0.0 | 0.0 | 0.00 | 0.00 | 0.00 | 92 | 1012.4 |
| 20260905090549 | 74 | 131 | 0.0 | 0.0 | 0.00 | 0.00 | 0.00 | 92 | 1012.3 |
| 20260905090049 | 74 | 131 | 0.0 | 0.0 | 0.00 | 0.00 | 0.00 | 92 | 1012.4 |
| 20260905085550 | 74 | 131 | 0.0 | 0.0 | 0.00 | 0.00 | 0.00 | 92 | 1012.4 |
| 20260905085048 | 74 | 131 | 0.0 | 0.0 | 0.00 | 0.00 | 0.00 | 92 | 1012.4 |
| 20260905084604 | 74 | 131 | 0.0 | 0.0 | 0.00 | 0.00 | 0.00 | 92 | 1012.3 |
| 20260905084048 | 74 | 131 | 0.0 | 0.0 | 0.00 | 0.00 | 0.00 | 92 | 1012.3 |
| 20260905083551 | 74 | 131 | 0.0 | 0.0 | 0.00 | 0.00 | 0.00 | 92 | 1012.4 |
| 20260905083050 | 74 | 131 | 0.0 | 0.0 | 0.00 | 0.00 | 0.00 | 92 | 1012.4 |
| 20260905082547 | 74 | 131 | 0.0 | 0.0 | 0.00 | 0.00 | 0.00 | 92 | 1012.3 |
| 20260905082047 | 74 | 131 | 0.0 | 0.0 | 0.00 | 0.00 | 0.00 | 92 | 1012.4 |
| 20260905081547 | 74 | 131 | 0.0 | 0.0 | 0.00 | 0.00 | 0.00 | 91 | 1012.3 |
| 20260905081048 | 74 | 131 | 0.0 | 0.0 | 0.00 | 0.00 | 0.00 | 91 | 1012.2 |
| 20260905080546 | 74 | 131 | 0.0 | 0.0 | 0.00 | 0.00 | 0.00 | 91 | 1012.3 |
| 20260905080112 | 74 | 131 | 0.0 | 0.0 | 0.00 | 0.00 | 0.00 | 91 | 1012.3 |
| 20260905075546 | 74 | 131 | 0.0 | 0.0 | 0.00 | 0.00 | 0.00 | 91 | 1012.3 |
| 20260905075044 | 75 | 131 | 0.0 | 0.0 | 0.00 | 0.00 | 0.00 | 90 | 1012.2 |
| 20260905074544 | 75 | 131 | 0.0 | 0.0 | 0.00 | 0.00 | 0.00 | 90 | 1012.3 |
| 20260905074044 | 75 | 131 | 0.0 | 0.0 | 0.00 | 0.00 | 0.00 | 90 | 1012.3 |
| 20260905073543 | 75 | 131 | 0.0 | 0.0 | 0.00 | 0.00 | 0.00 | 90 | 1012.2 |
| 20260905073044 | 75 | 131 | 0.0 | 0.0 | 0.00 | 0.00 | 0.00 | 90 | 1012.1 |
| 20260905072547 | 75 | 131 | 0.0 | 0.0 | 0.00 | 0.00 | 0.00 | 90 | 1012.0 |
| 20260905072043 | 75 | 131 | 0.0 | 0.0 | 0.00 | 0.00 | 0.00 | 90 | 1011.9 |
| 20260905071543 | 75 | 131 | 0.0 | 0.0 | 0.00 | 0.00 | 0.00 | 90 | 1012.0 |
| 20260905071042 | 75 | 131 | 0.0 | 0.0 | 0.00 | 0.00 | 0.00 | 90 | 1012.0 |
| 20260905070542 | 75 | 131 | 0.0 | 0.0 | 0.00 | 0.00 | 0.00 | 89 | 1011.9 |
| 20260905070050 | 75 | 131 | 0.0 | 0.0 | 0.00 | 0.00 | 0.00 | 89 | 1011.7 |
| 20260905065543 | 75 | 131 | 0.0 | 0.0 | 0.00 | 0.00 | 0.00 | 88 | 1011.9 |
| 20260905065040 | 75 | 131 | 0.0 | 0.0 | 0.00 | 0.00 | 0.00 | 88 | 1012.0 |
| 20260905064547 | 75 | 131 | 0.0 | 0.0 | 0.00 | 0.00 | 0.00 | 88 | 1012.2 |
| 20260905064040 | 75 | 131 | 0.0 | 0.0 | 0.00 | 0.00 | 0.00 | 87 | 1012.3 |
| 20260905063538 | 76 | 131 | 0.0 | 0.0 | 0.00 | 0.00 | 0.00 | 87 | 1012.4 |
| 20260905063041 | 76 | 131 | 0.0 | 0.0 | 0.00 | 0.00 | 0.00 | 86 | 1012.4 |
| 20260905062535 | 76 | 131 | 0.0 | 0.0 | 0.00 | 0.00 | 0.00 | 86 | 1012.4 |
| 20260905062034 | 76 | 131 | 0.0 | 0.0 | 0.00 | 0.00 | 0.00 | 85 | 1012.5 |
| 20260905061535 | 77 | 131 | 0.0 | 0.0 | 0.00 | 0.00 | 0.00 | 85 | 1012.5 |
| 20260905061034 | 77 | 131 | 0.0 | 0.0 | 0.00 | 0.00 | 0.00 | 84 | 1012.6 |
| 20260905060530 | 77 | 131 | 0.0 | 0.0 | 0.00 | 0.00 | 0.00 | 84 | 1012.7 |
| 20260905060043 | 77 | 131 | 0.0 | 0.0 | 0.00 | 0.00 | 0.00 | 83 | 1012.7 |
| 20260905055529 | 78 | 131 | 0.0 | 0.9 | 0.00 | 0.00 | 0.00 | 83 | 1012.8 |
| 20260905055028 | 78 | 131 | 0.0 | 1.7 | 0.00 | 0.00 | 0.00 | 83 | 1012.9 |
| 20260905054536 | 78 | 131 | 0.0 | 1.7 | 0.00 | 0.00 | 0.00 | 82 | 1012.9 |
| 20260905054033 | 78 | 131 | 0.0 | 0.9 | 0.00 | 0.00 | 0.00 | 82 | 1013.0 |
| 20260905053528 | 79 | 131 | 0.0 | 0.9 | 0.00 | 0.00 | 0.00 | 81 | 1013.0 |
| 20260905053028 | 79 | 131 | 0.0 | 0.0 | 0.00 | 0.00 | 0.00 | 81 | 1012.9 |
| 20260905052527 | 79 | 131 | 0.0 | 0.0 | 0.00 | 0.00 | 0.00 | 80 | 1012.9 |
| 20260905052027 | 79 | 131 | 0.0 | 1.7 | 0.00 | 0.00 | 0.00 | 80 | 1012.9 |
| 20260905051527 | 79 | 131 | 0.0 | 1.7 | 0.00 | 0.00 | 0.00 | 79 | 1012.9 |
| 20260905051027 | 79 | 131 | 0.0 | 1.7 | 0.00 | 0.00 | 0.00 | 79 | 1012.9 |
| 20260905050526 | 79 | 131 | 0.0 | 1.7 | 0.00 | 0.00 | 0.00 | 79 | 1013.0 |
| 20260905050028 | 79 | 131 | 0.0 | 1.7 | 0.00 | 0.00 | 0.00 | 78 | 1013.0 |
| 20260905045525 | 79 | 146 | 0.0 | 1.7 | 0.00 | 0.00 | 0.00 | 78 | 1013.0 |
| 20260905045030 | 79 | 145 | 0.0 | 2.6 | 0.00 | 0.00 | 0.00 | 78 | 1012.9 |
| 20260905044534 | 79 | 134 | 0.0 | 2.6 | 0.00 | 0.00 | 0.00 | 79 | 1012.9 |
| 20260905044025 | 78 | 188 | 0.0 | 0.9 | 0.00 | 0.00 | 0.00 | 80 | 1013.0 |
| 20260905043524 | 78 | 188 | 0.0 | 0.9 | 0.00 | 0.00 | 0.00 | 80 | 1013.1 |
| 20260905043023 | 78 | 188 | 0.0 | 0.0 | 0.00 | 0.00 | 0.00 | 81 | 1013.0 |
| 20260905042526 | 78 | 188 | 0.0 | 0.0 | 0.00 | 0.00 | 0.00 | 80 | 1013.0 |
| 20260905042022 | 78 | 188 | 0.0 | 0.0 | 0.00 | 0.00 | 0.00 | 79 | 1013.0 |
| 20260905041522 | 78 | 188 | 0.0 | 0.0 | 0.00 | 0.00 | 0.00 | 80 | 1013.0 |
| 20260905041020 | 78 | 188 | 0.0 | 0.0 | 0.00 | 0.00 | 0.00 | 79 | 1012.9 |
| 20260905040518 | 78 | 188 | 0.0 | 0.0 | 0.00 | 0.00 | 0.00 | 79 | 1012.8 |
| 20260905040024 | 79 | 188 | 0.0 | 0.0 | 0.00 | 0.00 | 0.00 | 79 | 1012.8 |
| 20260905035518 | 79 | 188 | 0.0 | 0.0 | 0.00 | 0.00 | 0.00 | 78 | 1012.8 |
| 20260905035017 | 79 | 188 | 0.0 | 0.0 | 0.00 | 0.00 | 0.00 | 79 | 1012.8 |
| 20260905034518 | 79 | 188 | 0.0 | 0.0 | 0.00 | 0.00 | 0.00 | 79 | 1012.9 |
| 20260905034018 | 79 | 188 | 0.0 | 0.0 | 0.00 | 0.00 | 0.00 | 78 | 1012.9 |
| 20260905033519 | 79 | 188 | 0.0 | 0.0 | 0.00 | 0.00 | 0.00 | 80 | 1012.9 |
| 20260905033017 | 79 | 188 | 0.0 | 0.0 | 0.00 | 0.00 | 0.00 | 79 | 1012.9 |
| 20260905032516 | 79 | 188 | 0.0 | 0.0 | 0.00 | 0.00 | 0.00 | 78 | 1012.9 |
| 20260905032017 | 79 | 188 | 0.0 | 0.0 | 0.00 | 0.00 | 0.00 | 78 | 1013.0 |
| 20260905031529 | 80 | 188 | 0.0 | 0.0 | 0.00 | 0.00 | 0.00 | 77 | 1013.0 |
| 20260905031016 | 80 | 188 | 0.0 | 0.0 | 0.00 | 0.00 | 0.00 | 77 | 1013.1 |
| 20260905030516 | 80 | 188 | 0.0 | 0.0 | 0.00 | 0.00 | 0.00 | 76 | 1013.2 |
| 20260905030017 | 80 | 188 | 0.0 | 0.0 | 0.00 | 0.00 | 0.00 | 76 | 1013.3 |
| 20260905025518 | 80 | 188 | 0.0 | 0.0 | 0.00 | 0.00 | 0.00 | 76 | 1013.3 |
| 20260905025016 | 80 | 188 | 0.0 | 0.0 | 0.00 | 0.00 | 0.00 | 76 | 1013.3 |
| 20260905024517 | 80 | 188 | 0.0 | 0.0 | 0.00 | 0.00 | 0.00 | 76 | 1013.4 |
| 20260905024015 | 80 | 188 | 0.0 | 0.0 | 0.00 | 0.00 | 0.00 | 76 | 1013.5 |
| 20260905023522 | 80 | 188 | 0.0 | 0.0 | 0.00 | 0.00 | 0.00 | 77 | 1013.5 |
| 20260905023018 | 81 | 188 | 0.0 | 0.0 | 0.00 | 0.00 | 0.00 | 75 | 1013.5 |
| 20260905022515 | 81 | 188 | 0.0 | 0.0 | 0.00 | 0.00 | 0.00 | 77 | 1013.6 |
| 20260905022021 | 81 | 188 | 0.0 | 0.0 | 0.00 | 0.00 | 0.00 | 75 | 1013.6 |
| 20260905021529 | 81 | 188 | 0.0 | 0.0 | 0.00 | 0.00 | 0.00 | 75 | 1013.6 |
| 20260905021014 | 81 | 188 | 0.0 | 0.0 | 0.00 | 0.00 | 0.00 | 74 | 1013.7 |
| 20260905020517 | 81 | 188 | 0.0 | 0.0 | 0.00 | 0.00 | 0.00 | 74 | 1013.7 |
| 20260905020014 | 81 | 188 | 0.0 | 0.0 | 0.00 | 0.00 | 0.00 | 74 | 1013.7 |
| 20260905015514 | 81 | 188 | 0.0 | 0.0 | 0.00 | 0.00 | 0.00 | 74 | 1013.7 |
| 20260905015016 | 82 | 188 | 0.0 | 0.0 | 0.00 | 0.00 | 0.00 | 73 | 1013.8 |
| 20260905014514 | 82 | 188 | 0.0 | 0.0 | 0.00 | 0.00 | 0.00 | 73 | 1013.7 |
| 20260905014015 | 82 | 188 | 0.0 | 0.0 | 0.00 | 0.00 | 0.00 | 73 | 1013.6 |
| 20260905013515 | 82 | 188 | 0.0 | 0.0 | 0.00 | 0.00 | 0.00 | 73 | 1013.6 |
| 20260905013015 | 82 | 188 | 0.0 | 0.0 | 0.00 | 0.00 | 0.00 | 72 | 1013.5 |
| 20260905012513 | 82 | 188 | 0.0 | 0.0 | 0.00 | 0.00 | 0.00 | 72 | 1013.5 |
| 20260905012013 | 82 | 188 | 0.0 | 0.0 | 0.00 | 0.00 | 0.00 | 72 | 1013.4 |
| 20260905011513 | 83 | 188 | 0.0 | 0.0 | 0.00 | 0.00 | 0.00 | 72 | 1013.4 |
| 20260905011013 | 83 | 188 | 0.0 | 0.0 | 0.00 | 0.00 | 0.00 | 72 | 1013.3 |
| 20260905010513 | 83 | 188 | 0.0 | 0.0 | 0.00 | 0.00 | 0.00 | 71 | 1013.3 |
| 20260905010012 | 83 | 188 | 0.0 | 0.0 | 0.00 | 0.00 | 0.00 | 70 | 1013.2 |
| 20260905005512 | 84 | 188 | 0.0 | 0.0 | 0.00 | 0.00 | 0.00 | 69 | 1013.2 |
| 20260905005011 | 84 | 188 | 0.0 | 0.0 | 0.00 | 0.00 | 0.00 | 68 | 1013.1 |
| 20260905004513 | 84 | 188 | 0.0 | 0.0 | 0.00 | 0.00 | 0.00 | 68 | 1013.0 |
| 20260905004012 | 84 | 188 | 0.0 | 0.0 | 0.00 | 0.00 | 0.00 | 68 | 1012.9 |
| 20260905003515 | 84 | 188 | 0.0 | 0.0 | 0.00 | 0.00 | 0.00 | 67 | 1013.0 |
| 20260905003022 | 85 | 188 | 0.0 | 0.0 | 0.00 | 0.00 | 0.00 | 67 | 1012.9 |
| 20260905002517 | 85 | 188 | 0.0 | 0.0 | 0.00 | 0.00 | 0.00 | 66 | 1012.8 |
| 20260905002013 | 85 | 188 | 0.0 | 0.0 | 0.00 | 0.00 | 0.00 | 67 | 1012.9 |
| 20260905001511 | 86 | 188 | 0.0 | 0.9 | 0.00 | 0.00 | 0.00 | 66 | 1012.9 |
| 20260905001011 | 86 | 188 | 0.0 | 0.9 | 0.00 | 0.00 | 0.00 | 65 | 1012.8 |
| 20260905000511 | 87 | 188 | 0.0 | 0.9 | 0.00 | 0.00 | 0.00 | 63 | 1012.7 |
| 20260905000011 | 87 | 188 | 0.0 | 0.9 | 0.00 | 0.00 | 0.00 | 62 | 1012.6 |
| 20260904235511 | 88 | 188 | 0.0 | 1.7 | 0.00 | 0.00 | 0.00 | 62 | 1012.5 |
| 20260904235010 | 88 | 188 | 0.0 | 1.7 | 0.00 | 0.00 | 0.00 | 60 | 1012.5 |
| 20260904234510 | 89 | 188 | 0.0 | 0.9 | 0.00 | 0.00 | 0.00 | 59 | 1012.5 |
| 20260904234011 | 90 | 188 | 0.0 | 3.5 | 0.00 | 0.00 | 0.00 | 57 | 1012.5 |
| 20260904233510 | 90 | 188 | 0.9 | 3.5 | 0.00 | 0.00 | 0.00 | 56 | 1012.4 |
| 20260904233030 | 90 | 74 | 1.7 | 3.5 | 0.00 | 0.00 | 0.00 | 55 | 1012.4 |
| 20260904232511 | 90 | 122 | 0.9 | 3.5 | 0.00 | 0.00 | 0.00 | 56 | 1012.3 |
| 20260904232009 | 91 | 214 | 0.9 | 2.6 | 0.00 | 0.00 | 0.00 | 55 | 1012.4 |
| 20260904231510 | 91 | 81 | 0.9 | 1.7 | 0.00 | 0.00 | 0.00 | 55 | 1012.3 |
| 20260904231009 | 91 | 98 | 0.0 | 2.6 | 0.00 | 0.00 | 0.00 | 55 | 1012.3 |
| 20260904230509 | 91 | 77 | 0.0 | 2.6 | 0.00 | 0.00 | 0.00 | 54 | 1012.3 |
| 20260904230025 | 91 | 98 | 0.0 | 2.6 | 0.00 | 0.00 | 0.00 | 55 | 1012.2 |
| 20260904225509 | 92 | 125 | 0.0 | 3.5 | 0.00 | 0.00 | 0.00 | 54 | 1012.3 |
| 20260904225008 | 92 | 70 | 0.9 | 3.5 | 0.00 | 0.00 | 0.00 | 55 | 1012.2 |
| 20260904224508 | 91 | 107 | 0.9 | 2.6 | 0.00 | 0.00 | 0.00 | 55 | 1012.2 |
| 20260904224009 | 91 | 191 | 0.0 | 3.5 | 0.00 | 0.00 | 0.00 | 55 | 1012.2 |
| 20260904223508 | 91 | 172 | 0.0 | 1.7 | 0.00 | 0.00 | 0.00 | 56 | 1012.1 |
| 20260904223008 | 91 | 126 | 0.9 | 1.7 | 0.00 | 0.00 | 0.00 | 54 | 1012.1 |
| 20260904222507 | 92 | 139 | 0.0 | 3.5 | 0.00 | 0.00 | 0.00 | 54 | 1012.2 |
| 20260904222007 | 93 | 139 | 0.0 | 5.2 | 0.00 | 0.00 | 0.00 | 54 | 1012.2 |
| 20260904221508 | 92 | 117 | 0.9 | 5.2 | 0.00 | 0.00 | 0.00 | 55 | 1012.1 |
| 20260904221007 | 93 | 124 | 0.9 | 4.3 | 0.00 | 0.00 | 0.00 | 53 | 1012.1 |
| 20260904220507 | 93 | 134 | 1.7 | 3.5 | 0.00 | 0.00 | 0.00 | 53 | 1012.2 |
| 20260904220012 | 93 | 77 | 0.9 | 3.5 | 0.00 | 0.00 | 0.00 | 53 | 1012.2 |
| 20260904215507 | 93 | 181 | 0.0 | 3.5 | 0.00 | 0.00 | 0.00 | 54 | 1012.1 |
| 20260904215006 | 92 | 141 | 0.9 | 3.5 | 0.00 | 0.00 | 0.00 | 54 | 1012.2 |
| 20260904214506 | 92 | 189 | 0.0 | 1.7 | 0.00 | 0.00 | 0.00 | 55 | 1012.2 |
| 20260904214005 | 92 | 98 | 0.0 | 2.6 | 0.00 | 0.00 | 0.00 | 55 | 1012.3 |
| 20260904213505 | 92 | 98 | 0.9 | 2.6 | 0.00 | 0.00 | 0.00 | 55 | 1012.3 |
| 20260904213005 | 92 | 96 | 0.9 | 2.6 | 0.00 | 0.00 | 0.00 | 55 | 1012.3 |
| 20260904212507 | 92 | 359 | 0.0 | 2.6 | 0.00 | 0.00 | 0.00 | 55 | 1012.3 |
| 20260904212004 | 92 | 308 | 0.0 | 2.6 | 0.00 | 0.00 | 0.00 | 55 | 1012.4 |
| 20260904211504 | 92 | 135 | 0.9 | 1.7 | 0.00 | 0.00 | 0.00 | 54 | 1012.4 |
| 20260904211006 | 92 | 137 | 0.0 | 3.5 | 0.00 | 0.00 | 0.00 | 56 | 1012.3 |
| 20260904210504 | 92 | 139 | 0.0 | 3.5 | 0.00 | 0.00 | 0.00 | 54 | 1012.3 |
| 20260904210004 | 91 | 318 | 0.0 | 1.7 | 0.00 | 0.00 | 0.00 | 56 | 1012.4 |
| 20260904205505 | 91 | 318 | 0.0 | 3.5 | 0.00 | 0.00 | 0.00 | 57 | 1012.4 |
| 20260904205003 | 92 | 318 | 0.9 | 3.5 | 0.00 | 0.00 | 0.00 | 56 | 1012.3 |
| 20260904204502 | 92 | 111 | 0.0 | 2.6 | 0.00 | 0.00 | 0.00 | 57 | 1012.3 |
| 20260904204003 | 92 | 87 | 0.9 | 5.2 | 0.00 | 0.00 | 0.00 | 55 | 1012.5 |
| 20260904203502 | 92 | 103 | 0.9 | 5.2 | 0.00 | 0.00 | 0.00 | 54 | 1012.4 |
| 20260904203001 | 92 | 89 | 0.9 | 2.6 | 0.00 | 0.00 | 0.00 | 55 | 1012.6 |
| 20260904202600 | 92 | 299 | 0.0 | 2.6 | 0.00 | 0.00 | 0.00 | 55 | 1012.6 |
| 20260904202059 | 92 | 326 | 0.9 | 3.5 | 0.00 | 0.00 | 0.00 | 55 | 1012.8 |
| 20260904201618 | 92 | 326 | 0.0 | 4.3 | 0.00 | 0.00 | 0.00 | 53 | 1012.9 |
| 20260904201058 | 93 | 93 | 1.7 | 4.3 | 0.00 | 0.00 | 0.00 | 53 | 1012.9 |
| 20260904200557 | 93 | 129 | 0.9 | 3.5 | 0.00 | 0.00 | 0.00 | 52 | 1013.0 |
| 20260904200058 | 92 | 8 | 0.9 | 2.6 | 0.00 | 0.00 | 0.00 | 52 | 1013.0 |
| 20260904195556 | 93 | 51 | 0.9 | 3.5 | 0.00 | 0.00 | 0.00 | 53 | 1013.2 |
| 20260904195058 | 92 | 134 | 0.9 | 3.5 | 0.00 | 0.00 | 0.00 | 55 | 1013.2 |
| 20260904194558 | 92 | 32 | 0.9 | 3.5 | 0.00 | 0.00 | 0.00 | 55 | 1013.2 |
| 20260904194054 | 92 | 1 | 0.9 | 2.6 | 0.00 | 0.00 | 0.00 | 54 | 1013.3 |
| 20260904193555 | 93 | 143 | 0.9 | 2.6 | 0.00 | 0.00 | 0.00 | 54 | 1013.3 |
| 20260904193059 | 93 | 148 | 0.0 | 2.6 | 0.00 | 0.00 | 0.00 | 54 | 1013.4 |
| 20260904192552 | 93 | 153 | 1.7 | 4.3 | 0.00 | 0.00 | 0.00 | 54 | 1013.5 |
| 20260904192055 | 93 | 172 | 1.7 | 4.3 | 0.00 | 0.00 | 0.00 | 56 | 1013.6 |
| 20260904191551 | 92 | 139 | 0.9 | 3.5 | 0.00 | 0.00 | 0.00 | 57 | 1013.8 |
| 20260904191050 | 92 | 23 | 0.9 | 4.3 | 0.00 | 0.00 | 0.00 | 56 | 1013.9 |
| 20260904190548 | 93 | 153 | 0.0 | 4.3 | 0.00 | 0.00 | 0.00 | 55 | 1013.9 |
| 20260904190049 | 92 | 66 | 0.9 | 4.3 | 0.00 | 0.00 | 0.00 | 57 | 1014.0 |
| 20260904185548 | 91 | 92 | 0.9 | 2.6 | 0.00 | 0.00 | 0.00 | 58 | 1014.0 |
| 20260904185051 | 91 | 95 | 0.9 | 1.7 | 0.00 | 0.00 | 0.00 | 60 | 1014.1 |
| 20260904184547 | 92 | 95 | 0.9 | 4.3 | 0.00 | 0.00 | 0.00 | 58 | 1014.2 |
| 20260904184046 | 91 | 243 | 0.0 | 2.6 | 0.00 | 0.00 | 0.00 | 60 | 1014.3 |
| 20260904183545 | 91 | 347 | 0.9 | 4.3 | 0.00 | 0.00 | 0.00 | 59 | 1014.4 |
| 20260904183044 | 93 | 84 | 1.7 | 4.3 | 0.00 | 0.00 | 0.00 | 59 | 1014.6 |
| 20260904182544 | 93 | 164 | 0.9 | 2.6 | 0.00 | 0.00 | 0.00 | 59 | 1014.6 |
| 20260904182044 | 92 | 51 | 0.9 | 5.2 | 0.00 | 0.00 | 0.00 | 60 | 1014.7 |
| 20260904181543 | 92 | 190 | 1.7 | 5.2 | 0.00 | 0.00 | 0.00 | 62 | 1014.7 |
| 20260904181046 | 92 | 165 | 0.9 | 3.5 | 0.00 | 0.00 | 0.00 | 59 | 1014.8 |
| 20260904180544 | 92 | 120 | 1.7 | 7.0 | 0.00 | 0.00 | 0.00 | 60 | 1014.8 |
| 20260904180055 | 92 | 274 | 0.9 | 7.0 | 0.00 | 0.00 | 0.00 | 60 | 1014.9 |
| 20260904175541 | 92 | 156 | 0.9 | 4.3 | 0.00 | 0.00 | 0.00 | 60 | 1014.9 |
| 20260904175041 | 90 | 68 | 0.9 | 2.6 | 0.00 | 0.00 | 0.00 | 63 | 1014.9 |
| 20260904174545 | 89 | 345 | 0.9 | 2.6 | 0.00 | 0.00 | 0.00 | 64 | 1015.0 |
| 20260904174040 | 89 | 323 | 0.0 | 3.5 | 0.00 | 0.00 | 0.00 | 63 | 1015.0 |
| 20260904173541 | 91 | 320 | 0.9 | 3.5 | 0.00 | 0.00 | 0.00 | 61 | 1015.1 |
| 20260904173058 | 90 | 208 | 0.9 | 2.6 | 0.00 | 0.00 | 0.00 | 62 | 1015.1 |
| 20260904172543 | 91 | 8 | 0.9 | 2.6 | 0.00 | 0.00 | 0.00 | 61 | 1015.1 |
| 20260904172038 | 90 | 1 | 0.9 | 2.6 | 0.00 | 0.00 | 0.00 | 61 | 1015.2 |
| 20260904171548 | 91 | 73 | 0.9 | 2.6 | 0.00 | 0.00 | 0.00 | 60 | 1015.2 |
| 20260904171037 | 91 | 100 | 0.9 | 4.3 | 0.00 | 0.00 | 0.00 | 60 | 1015.3 |
| 20260904170539 | 91 | 332 | 0.9 | 4.3 | 0.00 | 0.00 | 0.00 | 60 | 1015.4 |
| 20260904170038 | 91 | 193 | 1.7 | 4.3 | 0.00 | 0.00 | 0.00 | 60 | 1015.4 |
| 20260904165535 | 90 | 6 | 0.9 | 2.6 | 0.00 | 0.00 | 0.00 | 62 | 1015.4 |
| 20260904165036 | 90 | 29 | 0.9 | 2.6 | 0.00 | 0.00 | 0.00 | 63 | 1015.4 |
| 20260904164534 | 90 | 116 | 0.0 | 3.5 | 0.00 | 0.00 | 0.00 | 65 | 1015.4 |
| 20260904164034 | 89 | 322 | 0.0 | 2.6 | 0.00 | 0.00 | 0.00 | 64 | 1015.4 |
| 20260904163537 | 89 | 331 | 0.0 | 2.6 | 0.00 | 0.00 | 0.00 | 67 | 1015.5 |
| 20260904163041 | 89 | 331 | 0.0 | 1.7 | 0.00 | 0.00 | 0.00 | 67 | 1015.5 |
| 20260904162533 | 89 | 331 | 0.0 | 3.5 | 0.00 | 0.00 | 0.00 | 65 | 1015.6 |
| 20260904162031 | 89 | 35 | 0.9 | 3.5 | 0.00 | 0.00 | 0.00 | 65 | 1015.7 |
| 20260904161531 | 88 | 190 | 0.9 | 3.5 | 0.00 | 0.00 | 0.00 | 69 | 1015.8 |
| 20260904161029 | 88 | 337 | 0.9 | 3.5 | 0.00 | 0.00 | 0.00 | 66 | 1015.8 |
| 20260904160533 | 89 | 1 | 0.9 | 4.3 | 0.00 | 0.00 | 0.00 | 66 | 1015.9 |
| 20260904160034 | 88 | 89 | 1.7 | 4.3 | 0.00 | 0.00 | 0.00 | 66 | 1016.0 |
| 20260904155525 | 87 | 119 | 0.9 | 4.3 | 0.00 | 0.00 | 0.00 | 67 | 1016.1 |
| 20260904155025 | 87 | 112 | 0.9 | 4.3 | 0.00 | 0.00 | 0.00 | 69 | 1016.1 |
| 20260904154524 | 87 | 316 | 0.9 | 2.6 | 0.00 | 0.00 | 0.00 | 69 | 1016.1 |
| 20260904154022 | 87 | 310 | 0.9 | 3.5 | 0.00 | 0.00 | 0.00 | 71 | 1016.1 |
| 20260904153522 | 86 | 285 | 0.9 | 1.7 | 0.00 | 0.00 | 0.00 | 71 | 1016.1 |
| 20260904153021 | 86 | 285 | 0.0 | 1.7 | 0.00 | 0.00 | 0.00 | 71 | 1016.1 |
| 20260904152519 | 86 | 285 | 0.0 | 2.6 | 0.00 | 0.00 | 0.00 | 73 | 1016.1 |
| 20260904152020 | 86 | 158 | 0.0 | 1.7 | 0.00 | 0.00 | 0.00 | 73 | 1016.2 |
| 20260904151518 | 86 | 134 | 0.9 | 4.3 | 0.00 | 0.00 | 0.00 | 72 | 1016.2 |
| 20260904151019 | 85 | 139 | 0.0 | 4.3 | 0.00 | 0.00 | 0.00 | 73 | 1016.3 |
| 20260904150517 | 84 | 153 | 0.9 | 2.6 | 0.00 | 0.00 | 0.00 | 73 | 1016.2 |
| 20260904150016 | 84 | 139 | 0.0 | 1.7 | 0.00 | 0.00 | 0.00 | 76 | 1016.2 |
| 20260904145513 | 83 | 139 | 0.9 | 1.7 | 0.00 | 0.00 | 0.00 | 77 | 1016.1 |
| 20260904145011 | 83 | 139 | 0.0 | 1.7 | 0.00 | 0.00 | 0.00 | 78 | 1016.0 |
| 20260904144509 | 83 | 139 | 0.0 | 1.7 | 0.00 | 0.00 | 0.00 | 79 | 1016.0 |
| 20260904144008 | 82 | 152 | 0.0 | 0.9 | 0.00 | 0.00 | 0.00 | 79 | 1016.0 |
| 20260904143508 | 82 | 152 | 0.0 | 2.6 | 0.00 | 0.00 | 0.00 | 79 | 1016.1 |
| 20260904143026 | 82 | 152 | 0.9 | 3.5 | 0.00 | 0.00 | 0.00 | 78 | 1016.0 |
| 20260904142508 | 81 | 129 | 0.0 | 2.6 | 0.00 | 0.00 | 0.00 | 80 | 1016.0 |
| 20260904142006 | 81 | 129 | 0.0 | 2.6 | 0.00 | 0.00 | 0.00 | 80 | 1016.0 |
| 20260904141505 | 81 | 169 | 0.0 | 3.5 | 0.00 | 0.00 | 0.00 | 80 | 1016.0 |
| 20260904141004 | 81 | 183 | 1.7 | 3.5 | 0.00 | 0.00 | 0.00 | 81 | 1016.0 |
| 20260904140503 | 81 | 77 | 0.9 | 2.6 | 0.00 | 0.00 | 0.00 | 81 | 1016.0 |
| 20260904140002 | 80 | 80 | 0.9 | 2.6 | 0.00 | 0.00 | 0.00 | 81 | 1016.1 |
| 20260904135502 | 80 | 135 | 0.9 | 2.6 | 0.00 | 0.00 | 0.00 | 83 | 1016.1 |
| 20260904135101 | 79 | 204 | 0.0 | 1.7 | 0.00 | 0.00 | 0.00 | 84 | 1016.1 |
| 20260904134606 | 79 | 204 | 0.0 | 1.7 | 0.00 | 0.00 | 0.00 | 84 | 1016.0 |
| 20260904134059 | 79 | 204 | 0.9 | 1.7 | 0.00 | 0.00 | 0.00 | 85 | 1016.0 |
| 20260904133559 | 79 | 204 | 0.9 | 1.7 | 0.00 | 0.00 | 0.00 | 85 | 1015.9 |
| 20260904133059 | 78 | 281 | 0.0 | 0.0 | 0.00 | 0.00 | 0.00 | 86 | 1015.8 |
| 20260904132558 | 78 | 282 | 0.0 | 0.0 | 0.00 | 0.00 | 0.00 | 87 | 1015.8 |
| 20260904132059 | 78 | 282 | 0.0 | 0.0 | 0.00 | 0.00 | 0.00 | 87 | 1015.8 |
| 20260904131558 | 78 | 282 | 0.0 | 0.0 | 0.00 | 0.00 | 0.00 | 88 | 1015.9 |
| 20260904131058 | 77 | 282 | 0.0 | 0.0 | 0.00 | 0.00 | 0.00 | 88 | 1016.0 |
| 20260904130556 | 77 | 282 | 0.0 | 0.0 | 0.00 | 0.00 | 0.00 | 89 | 1016.0 |
| 20260904130056 | 77 | 282 | 0.0 | 0.0 | 0.00 | 0.00 | 0.00 | 89 | 1015.9 |
| 20260904125556 | 76 | 282 | 0.0 | 0.0 | 0.00 | 0.00 | 0.00 | 89 | 1015.8 |
| 20260904125059 | 76 | 282 | 0.0 | 0.0 | 0.00 | 0.00 | 0.00 | 90 | 1015.8 |
| 20260904124602 | 76 | 282 | 0.0 | 0.0 | 0.00 | 0.00 | 0.00 | 91 | 1015.9 |
| 20260904124059 | 75 | 282 | 0.0 | 0.0 | 0.00 | 0.00 | 0.00 | 91 | 1016.0 |
| 20260904123555 | 75 | 282 | 0.0 | 0.0 | 0.00 | 0.00 | 0.00 | 92 | 1015.8 |
| 20260904123055 | 74 | 282 | 0.0 | 0.0 | 0.00 | 0.00 | 0.00 | 92 | 1015.9 |
| 20260904122554 | 74 | 282 | 0.0 | 0.0 | 0.00 | 0.00 | 0.00 | 93 | 1015.8 |
| 20260904122054 | 74 | 282 | 0.0 | 0.0 | 0.00 | 0.00 | 0.00 | 93 | 1015.7 |
| 20260904121553 | 74 | 282 | 0.0 | 0.0 | 0.00 | 0.00 | 0.00 | 93 | 1015.7 |
| 20260904121056 | 73 | 282 | 0.0 | 0.0 | 0.00 | 0.00 | 0.00 | 93 | 1015.8 |
| 20260904120553 | 73 | 282 | 0.0 | 0.0 | 0.00 | 0.00 | 0.00 | 93 | 1015.8 |
| 20260904120055 | 73 | 282 | 0.0 | 0.0 | 0.00 | 0.00 | 0.00 | 93 | 1015.7 |
| 20260904115550 | 73 | 282 | 0.0 | 0.0 | 0.00 | 0.00 | 0.00 | 93 | 1015.7 |
| 20260904115049 | 73 | 282 | 0.0 | 0.0 | 0.00 | 0.00 | 0.00 | 93 | 1015.6 |
| 20260904114548 | 73 | 282 | 0.0 | 0.0 | 0.00 | 0.00 | 0.00 | 93 | 1015.5 |
| 20260904114048 | 73 | 282 | 0.0 | 0.0 | 0.00 | 0.00 | 0.00 | 93 | 1015.5 |
| 20260904113548 | 73 | 282 | 0.0 | 0.0 | 0.00 | 0.00 | 0.00 | 93 | 1015.5 |
| 20260904113051 | 73 | 282 | 0.0 | 0.0 | 0.00 | 0.00 | 0.00 | 93 | 1015.5 |
| 20260904112548 | 73 | 64 | 0.0 | 0.0 | 0.00 | 0.00 | 0.00 | 93 | 1015.4 |
| 20260904112051 | 73 | 64 | 0.0 | 0.0 | 0.00 | 0.00 | 0.00 | 93 | 1015.3 |
| 20260904111546 | 73 | 64 | 0.0 | 0.0 | 0.00 | 0.00 | 0.00 | 93 | 1015.4 |
| 20260904111046 | 73 | 64 | 0.0 | 0.0 | 0.00 | 0.00 | 0.00 | 92 | 1015.3 |
| 20260904110548 | 73 | 64 | 0.0 | 0.0 | 0.00 | 0.00 | 0.00 | 92 | 1015.3 |
| 20260904110044 | 73 | 64 | 0.0 | 0.0 | 0.00 | 0.00 | 0.00 | 92 | 1015.2 |
| 20260904105544 | 73 | 64 | 0.0 | 0.0 | 0.00 | 0.00 | 0.00 | 92 | 1015.2 |
| 20260904105043 | 73 | 64 | 0.0 | 0.0 | 0.00 | 0.00 | 0.00 | 92 | 1015.1 |
| 20260904104543 | 73 | 64 | 0.0 | 0.0 | 0.00 | 0.00 | 0.00 | 92 | 1015.1 |
| 20260904104042 | 73 | 64 | 0.0 | 0.0 | 0.00 | 0.00 | 0.00 | 91 | 1015.1 |
| 20260904103542 | 74 | 64 | 0.0 | 0.0 | 0.00 | 0.00 | 0.00 | 91 | 1015.1 |
| 20260904103044 | 74 | 64 | 0.0 | 0.0 | 0.00 | 0.00 | 0.00 | 91 | 1015.1 |